Back to catalog

COSMOS 1275 DEB

AlivePO
NORAD 14406·DEBRIS·🇷🇺 Russia

Launched Jun 4, 1981 from Plesetsk Cosmodrome

Loading…

Next Passes (next 24 hours)

TLE

FreshSource: Space-Track

Epoch: Sep 14, 2026, 03:35 UTC

1 14406U 81053JB  26257.14946678  .00001721  00000-0  76545-3 0  9990
2 14406  82.8373 312.4014 0016407 297.5170  91.7172 14.22379565234462

Track COSMOS 1275 DEB in real time with AllMySat

Download on the App Store